Holmes Reef Observation History
Time Wind Speed Temp Pressure Rel. Hum Rain
14/09:30am SE 17-19 kts 26.9°c 1012.1 hPa n/a n/a
14/09:00am SE 17-19 kts 26.9°c 1011.8 hPa n/a n/a
14/08:30am SE 17-19 kts 26.9°c 1011.4 hPa n/a n/a
14/08:00am SE 16-19 kts 26.9°c 1011.2 hPa n/a n/a
14/07:30am SE 17-19 kts 26.7°c 1011.0 hPa n/a n/a
14/07:00am SE 17-19 kts 26.6°c 1010.7 hPa n/a n/a
14/06:30am SE 16-19 kts 26.5°c 1010.2 hPa n/a n/a
14/06:00am SE 16-19 kts 26.7°c 1010.0 hPa n/a n/a
14/05:30am ESE 17-19 kts 26.5°c 1009.6 hPa n/a n/a
14/05:00am ESE 15-18 kts 26.4°c 1009.4 hPa n/a n/a
14/04:30am ESE 16-19 kts 26.5°c 1009.1 hPa n/a n/a
14/04:00am SE 15-18 kts 26.4°c 1009.1 hPa n/a n/a
14/03:30am SE 16-19 kts 26.5°c 1009.0 hPa n/a n/a
14/03:00am SE 15-18 kts 26.5°c 1009.3 hPa n/a n/a
14/02:30am SE 15-18 kts 26.5°c 1009.4 hPa n/a n/a
14/02:00am SE 15-17 kts 26.5°c 1009.6 hPa n/a n/a
14/01:30am SE 16-19 kts 26.6°c 1009.7 hPa n/a n/a
14/01:00am SE 16-19 kts 26.5°c 1009.6 hPa n/a n/a
14/12:30am SE 16-19 kts 26.5°c 1009.9 hPa n/a n/a
14/12:00am SE 16-19 kts 26.5°c 1010.2 hPa n/a n/a
Time Wind Speed Temp Pressure Rel. Hum Rain
13/11:30pm SE 15-18 kts 26.7°c 1010.4 hPa n/a n/a
13/11:00pm SE 16-19 kts 26.6°c 1010.6 hPa n/a n/a
13/10:30pm SE 17-19 kts 26.5°c 1010.6 hPa n/a n/a
13/10:00pm SE 18-21 kts 26.6°c 1010.6 hPa n/a n/a
13/09:30pm SE 18-20 kts 26.6°c 1010.8 hPa n/a n/a
13/09:00pm SE 17-21 kts 26.7°c 1010.9 hPa n/a n/a
13/08:30pm SE 17-19 kts 26.7°c 1010.9 hPa n/a n/a
13/08:00pm SE 16-19 kts 26.7°c 1010.7 hPa n/a n/a
13/07:30pm SSE 16-20 kts 26.6°c 1010.5 hPa n/a n/a
13/07:00pm SE 18-21 kts 26.7°c 1010.1 hPa n/a n/a
13/06:30pm SE 19-22 kts 26.7°c 1009.8 hPa n/a n/a
13/06:00pm SSE 18-21 kts 26.7°c 1009.8 hPa n/a n/a
13/05:30pm S 19-20 kts 26.8°c 1009.6 hPa n/a n/a
13/05:00pm SSE 18-19 kts 26.9°c 1009.4 hPa n/a n/a
13/04:30pm SSE 18-21 kts 27.2°c 1009.0 hPa n/a n/a
13/04:00pm SSE 18-20 kts 27.2°c 1008.8 hPa n/a n/a
13/03:30pm S 18-20 kts 27.5°c 1008.7 hPa n/a n/a
13/03:00pm SSE 18-19 kts 27.1°c 1008.7 hPa n/a n/a
13/02:30pm S 17-19 kts 27.5°c 1008.9 hPa n/a n/a
13/02:00pm SSE 16-18 kts 27.6°c 1009.3 hPa n/a n/a
13/01:30pm SSE 17-19 kts 27.3°c 1009.5 hPa n/a n/a
13/01:00pm SSE 15-17 kts 27.6°c 1009.8 hPa n/a n/a
13/12:30pm SSE 15-16 kts 27.3°c 1010.2 hPa n/a n/a
13/12:00pm SSE 15-16 kts 27.3°c 1010.6 hPa n/a n/a
13/11:30am SSE 13-15 kts 27.3°c 1010.9 hPa n/a n/a
13/11:00am SSE 13-15 kts 27.4°c 1011.0 hPa n/a n/a
13/10:30am SSE 13-14 kts 27.2°c 1011.3 hPa n/a n/a
13/10:00am SSE 15-17 kts 27.1°c 1011.5 hPa n/a n/a
13/09:30am SE 13-15 kts 27.1°c 1011.5 hPa n/a n/a
13/09:00am SSE 13-15 kts 27.2°c 1011.5 hPa n/a n/a
13/08:30am SSE 13-14 kts 27.1°c 1011.3 hPa n/a n/a
13/08:00am SE 11-13 kts 26.9°c 1010.9 hPa n/a n/a
13/07:30am SE 11-13 kts 26.8°c 1010.6 hPa n/a n/a
13/07:00am SE 11-13 kts 26.6°c 1010.3 hPa n/a n/a
13/06:30am SE 11-13 kts 26.5°c 1010.1 hPa n/a n/a
13/06:00am SE 12-14 kts 26.6°c 1009.8 hPa n/a n/a
13/05:30am SE 11-13 kts 26.4°c 1009.5 hPa n/a n/a
13/05:00am SE 10-13 kts 26.6°c 1009.4 hPa n/a n/a
13/04:30am SE 13-14 kts 26.4°c 1009.4 hPa n/a n/a
13/04:00am SE 14-15 kts 26.4°c 1009.5 hPa n/a n/a
13/03:30am SSE 13-15 kts 26.5°c 1009.8 hPa n/a n/a
13/03:00am SSE 15-17 kts 26.6°c 1009.9 hPa n/a n/a
13/02:30am SSE 15-17 kts 26.5°c 1010.1 hPa n/a n/a
13/02:00am SE 14-16 kts 26.6°c 1010.4 hPa n/a n/a
13/01:30am SSE 13-15 kts 26.6°c 1010.7 hPa n/a n/a
13/01:00am SSE 14-16 kts 26.6°c 1011.0 hPa n/a n/a
13/12:30am SSE 14-16 kts 26.6°c 1011.3 hPa n/a n/a
13/12:00am SSE 15-16 kts 26.6°c 1011.4 hPa n/a n/a
Time Wind Speed Temp Pressure Rel. Hum Rain
12/11:30pm SSE 15-17 kts 26.5°c 1011.5 hPa n/a n/a
12/11:00pm SE 16-17 kts 26.8°c 1011.7 hPa n/a n/a
12/10:30pm SSE 15-17 kts 26.6°c 1011.6 hPa n/a n/a
12/10:00pm SSE 16-18 kts 26.7°c 1011.8 hPa n/a n/a
12/09:30pm SSE 15-18 kts 26.7°c 1011.6 hPa n/a n/a
12/09:00pm SSE 15-18 kts 26.7°c 1011.7 hPa n/a n/a
12/08:30pm SSE 16-17 kts 26.7°c 1011.5 hPa n/a n/a
12/08:00pm SSE 17-19 kts 26.7°c 1011.3 hPa n/a n/a
12/07:30pm SSE 17-19 kts 26.7°c 1010.9 hPa n/a n/a
12/07:00pm SSE 16-19 kts 26.7°c 1010.7 hPa n/a n/a
12/06:30pm SSE 15-17 kts 26.8°c 1010.6 hPa n/a n/a
12/06:00pm SSE 15-16 kts 26.8°c 1010.5 hPa n/a n/a
12/05:30pm SSE 14-16 kts 26.9°c 1010.6 hPa n/a n/a
12/05:00pm SSE 14-16 kts 27.1°c 1010.4 hPa n/a n/a
12/04:30pm SSE 14-16 kts 27.4°c 1010.0 hPa n/a n/a
12/04:00pm SSE 15-16 kts 27.8°c 1009.9 hPa n/a n/a
12/03:30pm SSE 15-17 kts 27.3°c 1009.9 hPa n/a n/a
12/03:00pm SSE 13-15 kts 27.2°c 1009.9 hPa n/a n/a
12/02:30pm SSE 13-15 kts 27.4°c 1010.1 hPa n/a n/a
12/02:00pm SE 12-14 kts 27.0°c 1010.3 hPa n/a n/a
12/01:30pm SSE 12-14 kts 27.3°c 1010.7 hPa n/a n/a
12/01:00pm SE 13-14 kts 27.1°c 1011.0 hPa n/a n/a
12/12:30pm SSE 12-14 kts 27.1°c 1011.4 hPa n/a n/a
12/12:00pm SSE 13-15 kts 27.2°c 1011.9 hPa n/a n/a
12/11:30am SSE 14-15 kts 27.3°c 1012.1 hPa n/a n/a
12/11:00am SE 12-14 kts 27.2°c 1012.4 hPa n/a n/a
12/10:30am SSE 13-14 kts 27.1°c 1012.8 hPa n/a n/a
12/10:00am SE 13-15 kts 27.0°c 1013.0 hPa n/a n/a
12/09:30am SE 13-15 kts 27.0°c 1012.8 hPa n/a n/a
12/09:00am SE 15-16 kts 27.0°c 1012.6 hPa n/a n/a
12/08:30am SE 14-15 kts 26.9°c 1012.5 hPa n/a n/a
12/08:00am SE 15-16 kts 26.9°c 1012.2 hPa n/a n/a
12/07:30am SE 14-16 kts 26.9°c 1012.0 hPa n/a n/a
12/07:00am SE 15-17 kts 26.8°c 1011.6 hPa n/a n/a
12/06:30am SE 15-16 kts 26.7°c 1011.3 hPa n/a n/a
12/06:00am SE 15-16 kts 26.7°c 1011.3 hPa n/a n/a
12/05:30am ESE 14-16 kts 26.7°c 1011.0 hPa n/a n/a
12/05:00am ESE 13-16 kts 26.7°c 1010.8 hPa n/a n/a
12/04:30am ESE 13-15 kts 26.7°c 1010.7 hPa n/a n/a
12/04:00am ESE 13-15 kts 26.7°c 1010.9 hPa n/a n/a
12/03:30am ESE 13-15 kts 26.8°c 1011.0 hPa n/a n/a
12/03:00am ESE 15-16 kts 26.9°c 1010.8 hPa n/a n/a
12/02:30am ESE 15-17 kts 26.8°c 1011.0 hPa n/a n/a
12/02:00am ESE 13-15 kts 26.7°c 1011.4 hPa n/a n/a
12/01:30am ESE 14-16 kts 26.8°c 1011.6 hPa n/a n/a
12/01:00am ESE 14-17 kts 26.9°c 1011.7 hPa n/a n/a
12/12:30am ESE 14-16 kts 27.0°c 1011.9 hPa n/a n/a
12/12:00am ESE 13-15 kts 26.9°c 1012.4 hPa n/a n/a